Weather History for Clermont County, Batavia, OH

Change the Weather History Date:

Wednesday, April 24, 2013

  Actual Average (KLUK) Record (KLUK)
Temperature  
Mean Temperature 52 °F -  
Max Temperature 66 °F 65 °F 88 °F (1960)
Min Temperature 37 °F 46 °F 30 °F (2003)
Degree Days  
Heating Degree Days 12    
Growing Degree Days 2 (Base 50)    
Moisture  
Dew Point 44 °F    
Average Humidity 72    
Maximum Humidity 100    
Minimum Humidity 52    
Precipitation  
Precipitation 0.79 in - - ()
Sea Level Pressure  
Sea Level Pressure 29.96 in    
Wind  
Wind Speed 10 mph ()    
Max Wind Speed 18 mph    
Max Gust Speed 28 mph    
Visibility 8.5 miles    
Events      
Averages and records for this station are not official NWS values.
T = Trace of Precipitation, MM = Missing Value Source: Averaged Metar Reports

Daily Weather History Graph

Daily Weather History Graph

Search for Another Location

Airport:

Trip Planner

Search our weather history database for the weather conditions in past years. The results will help you decide how hot, cold, wet, or windy it might be!

Date:

Astronomy

Apr. 24, 2013 Rise Set
Actual Time 6:47 AM EDT 8:23 PM EDT
Civil Twilight 6:18 AM EDT 8:51 PM EDT
Nautical Twilight 5:44 AM EDT 9:25 PM EDT
Astronomical Twilight 5:08 AM EDT 10:02 PM EDT
Moon 7:25 PM EDT (4/24) 5:49 AM EDT (4/24)
Length of Visible Light 14h 32m
Length of Day
13h 35m
Waxing Gibbous, 98% of the Moon is Illuminated
Apr 24
Waxing Gibbous
Apr 25
Full
May 2
Last Quarter
May 9
New
May 18
First Quarter

Hourly Weather History & Observations

Time (EDT) Temp. Windchill Dew Point Humidity Pressure Visibility Wind Dir Wind Speed Gust Speed Precip Events Conditions
12:15 AM 64.4 °F - 46.4 °F 52% 29.89 in 10.0 mi SSW 9.2 mph - N/A   Overcast
12:35 AM 64.4 °F - 46.4 °F 52% 29.88 in 10.0 mi SSW 9.2 mph 17.3 mph N/A   Mostly Cloudy
12:55 AM 64.4 °F - 46.4 °F 52% 29.88 in 10.0 mi SSW 9.2 mph 18.4 mph N/A   Clear
1:14 AM 64.4 °F - 46.4 °F 52% 29.87 in 10.0 mi SSW 10.4 mph 20.7 mph N/A   Scattered Clouds
1:35 AM 64.4 °F - 46.4 °F 52% 29.86 in 10.0 mi SSW 10.4 mph 21.9 mph N/A   Mostly Cloudy
1:55 AM 64.4 °F - 46.4 °F 52% 29.85 in 10.0 mi SSW 15.0 mph 25.3 mph N/A   Mostly Cloudy
2:15 AM 64.4 °F - 46.4 °F 52% 29.85 in 10.0 mi SSW 12.7 mph 23.0 mph N/A   Scattered Clouds
2:35 AM 64.4 °F - 46.4 °F 52% 29.83 in 10.0 mi SSW 13.8 mph 21.9 mph N/A   Mostly Cloudy
2:55 AM 64.4 °F - 48.2 °F 56% 29.83 in 10.0 mi SSW 12.7 mph 18.4 mph N/A   Overcast
3:15 AM 66.2 °F - 48.2 °F 52% 29.82 in 10.0 mi SW 13.8 mph 23.0 mph N/A   Mostly Cloudy
3:35 AM 66.2 °F - 48.2 °F 52% 29.82 in 10.0 mi SW 11.5 mph 27.6 mph N/A   Overcast
3:55 AM 66.2 °F - 50.0 °F 56% 29.81 in 10.0 mi SW 13.8 mph 25.3 mph N/A   Overcast
4:15 AM 66.2 °F - 50.0 °F 56% 29.81 in 10.0 mi SW 16.1 mph 26.5 mph N/A   Overcast
4:35 AM 66.2 °F - 50.0 °F 56% 29.82 in 10.0 mi SW 10.4 mph 25.3 mph N/A   Overcast
4:55 AM 66.2 °F - 50.0 °F 56% 29.82 in 10.0 mi SW 11.5 mph 23.0 mph N/A   Overcast
5:14 AM 64.4 °F - 50.0 °F 59% 29.81 in 10.0 mi SSW 11.5 mph 24.2 mph N/A   Overcast
5:35 AM 64.4 °F - 50.0 °F 59% 29.82 in 10.0 mi SW 12.7 mph 19.6 mph N/A   Overcast
5:55 AM 64.4 °F - 50.0 °F 59% 29.82 in 10.0 mi SSW 9.2 mph 16.1 mph N/A   Overcast
6:14 AM 64.4 °F - 50.0 °F 59% 29.82 in 10.0 mi SW 8.1 mph - N/A   Overcast
6:35 AM 64.4 °F - 50.0 °F 59% 29.82 in 10.0 mi SSW 9.2 mph - N/A   Overcast
6:55 AM 64.4 °F - 50.0 °F 59% 29.81 in 10.0 mi SSW 6.9 mph - N/A   Overcast
7:14 AM 64.4 °F - 50.0 °F 59% 29.81 in 10.0 mi SSW 8.1 mph - N/A   Overcast
7:35 AM 62.6 °F - 50.0 °F 63% 29.81 in 10.0 mi South 8.1 mph - N/A   Overcast
7:55 AM 62.6 °F - 50.0 °F 63% 29.81 in 10.0 mi SSW 9.2 mph - N/A   Overcast
8:14 AM 60.8 °F - 53.6 °F 77% 29.83 in 4.0 mi SW 17.3 mph 25.3 mph 0.04 in   Overcast
8:35 AM 59.0 °F - 55.4 °F 88% 29.82 in 7.0 mi SW 6.9 mph 17.3 mph 0.08 in   Overcast
8:55 AM 59.0 °F - 55.4 °F 88% 29.82 in 7.0 mi SW 4.6 mph - 0.09 in   Overcast
9:14 AM 59.0 °F - 55.4 °F 88% 29.80 in 5.0 mi SSW 4.6 mph - 0.01 in   Overcast
9:35 AM 59.0 °F - 55.4 °F 88% 29.81 in 1.8 mi SSW 5.8 mph - 0.18 in   Overcast
9:55 AM 55.4 °F - 53.6 °F 94% 29.82 in 1.8 mi West 9.2 mph - 0.31 in   Overcast
10:15 AM 55.4 °F - 53.6 °F 94% 29.83 in 5.0 mi WNW 9.2 mph - 0.03 in   Overcast
10:35 AM 53.6 °F - 53.6 °F 100% 29.83 in 2.0 mi NW 6.9 mph - 0.12 in   Overcast
10:55 AM 50.0 °F - 48.2 °F 94% 29.83 in 1.5 mi NW 12.7 mph 27.6 mph 0.26 in   Overcast
11:15 AM 50.0 °F - 48.2 °F 94% 29.83 in 7.0 mi North 4.6 mph - 0.02 in   Overcast
11:54 AM 48.2 °F - 46.4 °F 93% 29.83 in 2.5 mi Calm Calm - 0.08 in   Overcast
12:15 PM 50.0 °F - 46.4 °F 87% 29.88 in 5.0 mi WNW 17.3 mph 20.7 mph 0.03 in   Overcast
12:35 PM 46.4 °F 40.1 °F 44.6 °F 93% 29.90 in 10.0 mi West 15.0 mph 21.9 mph 0.04 in   Overcast
12:54 PM 44.6 °F 38.1 °F 42.8 °F 93% 29.94 in 2.5 mi WNW 13.8 mph 21.9 mph 0.04 in   Overcast
1:15 PM 44.6 °F 37.4 °F 42.8 °F 93% 29.95 in 1.8 mi WNW 16.1 mph 20.7 mph N/A   Overcast
1:35 PM 44.6 °F 37.4 °F 42.8 °F 93% 29.95 in 2.0 mi WNW 16.1 mph 21.9 mph 0.01 in   Overcast
1:54 PM 46.4 °F 39.2 °F 42.8 °F 87% 29.95 in 3.0 mi WNW 18.4 mph 26.5 mph 0.01 in   Overcast
2:15 PM 44.6 °F 37.4 °F 42.8 °F 93% 29.95 in 7.0 mi NW 16.1 mph - N/A   Overcast
2:35 PM 44.6 °F 38.4 °F 41.0 °F 87% 29.98 in 10.0 mi WNW 12.7 mph 27.6 mph N/A   Overcast
2:54 PM 44.6 °F 37.2 °F 41.0 °F 87% 29.99 in 10.0 mi WNW 17.3 mph 26.5 mph N/A   Overcast
3:15 PM 44.6 °F 39.2 °F 41.0 °F 87% 30.01 in 10.0 mi NW 10.4 mph 19.6 mph N/A   Overcast
3:35 PM 42.8 °F 35.8 °F 39.2 °F 87% 30.03 in 10.0 mi NW 13.8 mph 20.7 mph N/A   Overcast
3:55 PM 44.6 °F 38.4 °F 39.2 °F 81% 30.03 in 10.0 mi WNW 12.7 mph 20.7 mph N/A   Overcast
4:15 PM 44.6 °F 38.1 °F 37.4 °F 76% 30.04 in 10.0 mi NW 13.8 mph 23.0 mph N/A   Overcast
4:35 PM 44.6 °F 38.1 °F 35.6 °F 71% 30.06 in 10.0 mi NW 13.8 mph 21.9 mph N/A   Overcast
4:55 PM 44.6 °F 38.8 °F 35.6 °F 71% 30.08 in 10.0 mi WNW 11.5 mph 17.3 mph N/A   Overcast
5:15 PM 44.6 °F 38.8 °F 35.6 °F 71% 30.09 in 10.0 mi WNW 11.5 mph 21.9 mph N/A   Overcast
5:35 PM 44.6 °F 39.2 °F 35.6 °F 71% 30.10 in 10.0 mi NW 10.4 mph 18.4 mph N/A   Overcast
5:55 PM 44.6 °F 38.8 °F 33.8 °F 66% 30.11 in 10.0 mi NW 11.5 mph 17.3 mph N/A   Overcast
6:15 PM 44.6 °F 39.2 °F 33.8 °F 66% 30.12 in 10.0 mi NW 10.4 mph 19.6 mph N/A   Overcast
6:34 PM 44.6 °F 40.2 °F 33.8 °F 66% 30.13 in 10.0 mi NW 8.1 mph - N/A   Overcast
6:55 PM 44.6 °F 38.1 °F 33.8 °F 66% 30.14 in 10.0 mi NW 13.8 mph - N/A   Overcast
7:15 PM 46.4 °F 41.5 °F 33.8 °F 62% 30.14 in 10.0 mi NW 10.4 mph - N/A   Overcast
7:34 PM 44.6 °F 39.7 °F 33.8 °F 66% 30.15 in 10.0 mi WNW 9.2 mph - N/A   Scattered Clouds
7:55 PM 44.6 °F 42.2 °F 33.8 °F 66% 30.15 in 10.0 mi WNW 4.6 mph - N/A   Scattered Clouds
8:15 PM 44.6 °F 41.4 °F 33.8 °F 66% 30.16 in 10.0 mi WNW 5.8 mph - N/A   Scattered Clouds
8:34 PM 44.6 °F 42.2 °F 33.8 °F 66% 30.17 in 10.0 mi WNW 4.6 mph - N/A   Scattered Clouds
8:55 PM 44.6 °F 43.1 °F 33.8 °F 66% 30.18 in 10.0 mi West 3.5 mph - N/A   Scattered Clouds
9:15 PM 42.8 °F 41.1 °F 33.8 °F 70% 30.19 in 10.0 mi WSW 3.5 mph - N/A   Clear
9:34 PM 42.8 °F 41.1 °F 33.8 °F 70% 30.20 in 10.0 mi West 3.5 mph - N/A   Clear
9:55 PM 42.8 °F 41.1 °F 33.8 °F 70% 30.21 in 10.0 mi WNW 3.5 mph - N/A   Clear
10:55 PM 41.0 °F - 35.6 °F 81% 30.23 in 10.0 mi Calm Calm - N/A   Clear
11:15 PM 39.2 °F - 35.6 °F 87% 30.23 in 10.0 mi Calm Calm - N/A   Clear
11:34 PM 39.2 °F - 35.6 °F 87% 30.23 in 10.0 mi Calm Calm - N/A   Clear
11:55 PM 37.4 °F 34.9 °F 35.6 °F 93% 30.24 in 10.0 mi WSW 3.5 mph - N/A   Clear